Regional Weather Roundup
Issued by NWS Northern Indiana

Home | Current Version | Previous Version | Text Only | Print | Product List | Glossary On
Versions: 1 2 3 4 5 6 7 8 9 10 11 12 13 14 15 16 17 18 19 20 21 22 23 24 25 26 27 28 29 30 31 32 33 34 35 36 37 38 39 40 41 42 43 44 45 46 47 48 49 50
000
ASUS43 KIWX 291510
RWRIWX

KIWX WEATHER ROUNDUP
NATIONAL WEATHER SERVICE NORTHERN INDIANA
1100 AM EDT TUE JUL 29 2014

NOTE: "FAIR" INDICATES FEW OR NO CLOUDS BELOW 12,000 FEET WITH NO
SIGNIFICANT WEATHER AND/OR OBSTRUCTIONS TO VISIBILITY.

* THESE STATIONS ARE NOT UNDER NWS QUALITY CONTROL. THEY ALSO MAY NOT
  REPORT WEATHER SUCH AS PRECIPITATION OR FOG.

INZ001>027-291600-
NORTHERN INDIANA

CITY           SKY/WX    TMP DP  RH WIND       PRES   REMARKS
GARY*          MOSUNNY   72  57  60 W14       30.05F
VALPARAISO     MOSUNNY   69  57  65 W7        30.05F
MICHIGAN CITY* SUNNY     68  54  60 NW8       30.05S
LAPORTE*       MOSUNNY   67  55  66 SW7       30.05S
KNOX*          PTSUNNY   66  53  64 SW5       30.04F
SOUTH BEND     PTSUNNY   65  53  65 SW10      30.04F
ELKHART*       PTSUNNY   64  54  68 S8        30.05S
GOSHEN         CLOUDY    63  54  72 SW7       30.05S
MONTICELLO*    MOSUNNY   66  55  69 W3        30.06S
LOGANSPORT*    MOSUNNY   66  52  59 SW6       30.08R
ROCHESTER*     MOSUNNY   68  52  56 SW8       30.07R
WARSAW*        CLOUDY    63  54  72 SW6       30.06S
ANGOLA*        PTSUNNY   63  54  72 VRB3      30.05R
FORT WAYNE     MOSUNNY   65  51  60 W8        30.07S
HUNTINGTON*    MOSUNNY   64  51  61 W6        30.06S
PERU/GRISSOM   SUNNY     66  57  73 W5        30.07S
MARION*        SUNNY     63  51  64 W5        30.08S

$$
INZ028>050-291600-
CENTRAL INDIANA

CITY           SKY/WX    TMP DP  RH WIND       PRES   REMARKS
LAFAYETTE      SUNNY     65  56  72 W5        30.07F
KOKOMO*        SUNNY     66  54  63 W7        30.07S
MUNCIE*        SUNNY     64  51  62 W3        30.08S
INDIANAPOLIS   SUNNY     67  50  54 CALM      30.09R

$$
MIZ043>046-050>051-056>058-064>065-071>073-077>080-291600-
SOUTHWEST LOWER MICHIGAN

CITY           SKY/WX    TMP DP  RH WIND       PRES   REMARKS
BATTLE CREEK   CLOUDY    65  53  65 SW10      30.03S
BENTON HARBOR  MOSUNNY   67  57  70 W13       30.03S
COLDWATER*     PTSUNNY   62  53  72 W7        30.04S
HILLSDALE*     CLOUDY    63  53  67 W5        30.04S
HOLLAND        MOSUNNY   67  58  72 W5        30.02S
GRAND RAPIDS   PTSUNNY   66  58  75 W9        30.00F
KALAMAZOO      CLOUDY    62  55  77 SW5       30.03F
STURGIS*       CLOUDY    61  54  77 SW6       30.04S
THREE RIVERS*  CLOUDY    63  56  78 SW7       30.04S

$$
OHZ001>008-015>018-024>025-291600-
NORTHWEST OHIO

CITY           SKY/WX    TMP DP  RH WIND       PRES   REMARKS
WAUSEON*       FAIR      66  50  55 W8        30.04S
DEFIANCE       MOSUNNY   66  49  54 VRB5      30.05F
FINDLAY        SUNNY     66  50  56 W9        30.05R
TOLEDO EXPRESS SUNNY     66  49  54 W7        30.04S
TOLEDO METCALF SUNNY     66  48  52 VRB6      30.04S
LIMA           SUNNY     64  50  60 W5        30.06S

$$
&&


USA.gov is the U.S. government's official web portal to all federal, state and local government web resources and services.